Gastonia, NC

9:13 AM EDT on July 21, 2017 (GMT -0400)
Gastonia Municipal

Weather History for KAKH - November, 2012

Change the Weather History Date:

Thursday, November 8, 2012

  Actual Average (KCLT) Record (KCLT)
Temperature  
Mean Temperature 52 °F -  
Max Temperature 64 °F 62 °F 78 °F (1934)
Min Temperature 39 °F 41 °F 25 °F (1967)
Degree Days  
Heating Degree Days 14    
Growing Degree Days 2 (Base 50)    
Moisture  
Dew Point 28 °F    
Average Humidity 44    
Maximum Humidity 77    
Minimum Humidity 19    
Precipitation  
Precipitation 0.00 in - - ()
Sea Level Pressure  
Sea Level Pressure 30.07 in    
Wind  
Wind Speed 4 mph (NW)    
Max Wind Speed 9 mph    
Max Gust Speed -    
Visibility 10 miles    
Events      
Averages and records for this station are not official NWS values.
T = Trace of Precipitation, MM = Missing Value Source: NWS Daily Summary

Daily Weather History Graph

Daily Weather History Graph

Search for Another Location

Airport or City:

Trip Planner

Search our weather history database for the weather conditions in past years. The results will help you decide how hot, cold, wet, or windy it might be!

Date:

Astronomy

Nov. 08, 2012 Rise Set
Actual Time 6:53 AM EST 5:23 PM EST
Civil Twilight 6:26 AM EST 5:49 PM EST
Nautical Twilight 5:56 AM EST 6:20 PM EST
Astronomical Twilight 5:26 AM EST 6:50 PM EST
Moon 12:59 AM EST (11/8) 1:52 PM EST (11/8)
Length of Visible Light 11h 23m
Length of Day
10h 30m
Waning Crescent, 33% of the Moon is Illuminated
Nov 8
Waning Crescent
Nov 13
New
Nov 20
First Quarter
Nov 28
Full
Dec 6
Last Quarter

Hourly Weather History & Observations

Time (EST) Temp. Windchill Dew Point Humidity Pressure Visibility Wind Dir Wind Speed Gust Speed Precip Events Conditions
12:54 AM 46.9 °F - 36.0 °F 66% 29.97 in 10.0 mi Variable 3.5 mph - N/A   Clear
1:54 AM 46.0 °F 44.8 °F 35.1 °F 66% 29.98 in 10.0 mi Variable 3.5 mph - N/A   Clear
2:54 AM 45.0 °F 43.5 °F 35.1 °F 68% 29.99 in 10.0 mi Variable 3.5 mph - N/A   Clear
3:54 AM 46.0 °F 44.8 °F 35.1 °F 66% 29.99 in 10.0 mi WNW 3.5 mph - N/A   Clear
4:54 AM 45.0 °F 42.6 °F 35.1 °F 68% 30.01 in 10.0 mi WNW 4.6 mph - N/A   Clear
5:54 AM 44.1 °F 41.5 °F 34.0 °F 68% 30.03 in 10.0 mi WNW 4.6 mph - N/A   Clear
6:54 AM 39.9 °F 37.8 °F 33.1 °F 77% 30.06 in 10.0 mi West 3.5 mph - N/A   Clear
7:54 AM 46.0 °F 43.9 °F 33.1 °F 61% 30.09 in 10.0 mi Variable 4.6 mph - N/A   Clear
8:54 AM 50.0 °F - 33.1 °F 52% 30.10 in 10.0 mi Variable 4.6 mph - N/A   Clear
9:54 AM 54.0 °F - 30.9 °F 41% 30.11 in 10.0 mi Variable 4.6 mph - N/A   Clear
10:54 AM 57.9 °F - 30.0 °F 35% 30.11 in 10.0 mi Variable 3.5 mph - N/A   Clear
11:54 AM 60.1 °F - 27.0 °F 28% 30.09 in 10.0 mi WNW 8.1 mph - N/A   Clear
12:54 PM 63.0 °F - 27.0 °F 26% 30.06 in 10.0 mi Variable 5.8 mph - N/A   Clear
1:54 PM 64.0 °F - 21.9 °F 20% 30.05 in 10.0 mi WNW 9.2 mph - N/A   Clear
2:54 PM 64.0 °F - 21.0 °F 19% 30.05 in 10.0 mi Variable 5.8 mph - N/A   Clear
3:54 PM 63.0 °F - 21.9 °F 21% 30.06 in 10.0 mi North 9.2 mph - N/A   Clear
4:26 PM 62.6 °F - 21.2 °F 20% 30.06 in 10.0 mi North 4.6 mph - N/A   Partly Cloudy
4:54 PM 61.0 °F - 23.0 °F 23% 30.06 in 10.0 mi Calm Calm - N/A   Clear
5:54 PM 57.0 °F - 23.0 °F 27% 30.09 in 10.0 mi Calm Calm - N/A   Clear
6:54 PM 55.0 °F - 21.9 °F 28% 30.12 in 10.0 mi Calm Calm - N/A   Clear
7:54 PM 52.0 °F - 24.1 °F 34% 30.13 in 10.0 mi North 3.5 mph - N/A   Clear
8:54 PM 50.0 °F - 25.0 °F 38% 30.14 in 10.0 mi Calm Calm - N/A   Clear
9:54 PM 46.9 °F - 26.1 °F 44% 30.16 in 10.0 mi North 3.5 mph - N/A   Clear
10:54 PM 43.0 °F 40.3 °F 28.0 °F 56% 30.16 in 10.0 mi North 4.6 mph - N/A   Clear
11:54 PM 45.0 °F 42.6 °F 28.9 °F 53% 30.16 in 10.0 mi North 4.6 mph - N/A   Clear